Location: Unspecified
(44.5899°N, 128.9834°E)
Time: 05:36:01
(UTC+08:00)

Resurs 01 Rocket - Visible Passes

Search period start: 24 August 2017 00:00
Search period end: 03 September 2017 00:00
Orbit: 635 x 644 km, 98.1° (Epoch: 22 August)

Date Brightness Start Highest point End Pass type
(mag) Time Alt. Az. Time Alt. Az. Time Alt. Az.
24 Aug 4.2 20:02:36 10° SW 20:05:41 18° W 20:08:48 10° NW visible
25 Aug 1.6 18:47:47 10° SSE 18:52:14 81° ENE 18:56:43 10° NNW visible
25 Aug 4.7 20:28:27 10° W 20:29:17 10° W 20:30:08 10° WNW visible
26 Aug 2.3 19:11:12 10° S 19:15:35 58° W 19:20:01 10° NNW visible
27 Aug 3.3 19:35:00 10° SSW 19:39:00 33° W 19:43:04 10° NNW visible
28 Aug 4.1 19:59:15 10° SW 20:02:30 20° W 20:05:48 10° NW visible
29 Aug 1.6 18:44:40 10° SSE 18:49:06 75° ENE 18:53:34 10° N visible
29 Aug 4.6 20:24:37 10° WSW 20:26:06 11° W 20:27:36 10° WNW visible
30 Aug 2.1 19:08:02 10° S 19:12:27 63° W 19:16:53 10° NNW visible
31 Aug 3.1 19:31:45 10° SSW 19:35:51 36° W 19:39:59 10° NNW visible
01 Sep 4.0 19:55:56 10° SW 19:59:21 21° W 20:02:46 10° NW visible
02 Sep 1.6 18:41:34 10° SSE 18:45:58 69° ENE 18:50:24 10° N visible
02 Sep 4.5 20:21:00 10° WSW 20:22:55 12° W 20:24:50 10° WNW visible
